sat.trackr.live / text

‹ back to catalog

SERVIS 2

NORAD 36588 · 2010-023A

PAYLOAD ACTIVE UNKNOWN

§ Identity

Operator
Country
JPN
Launch date
2010-06-02
Launch site
PLMSC
Launch vehicle
Mass (kg)
RCS (m²)
2.66

External: N2YO · Heavens-Above · Gunter

§ Orbital elements

Epoch: 2026-05-25T02:47:00.843936Z

Period
109.42 min
Inclination
100.4284°
Eccentricity
0.0016943
Mean motion
13.16051685 rev/d
Perigee alt
1,187.0 km
Apogee alt
1,212.7 km
Semi-major
7,578.0 km
B*
1.4196e-4
RAAN
333.1626°
Arg perigee
329.4258°
Mean anomaly
142.3721°
Rev number
76,773

§ Raw data

SERVIS 21 36588U 10023A   26145.11598199  .00000009  00000+0  14196-3 0  99992 36588 100.4284 333.1626 0016943 329.4258 142.3721 13.16051685767737

JSON: /api/v1/satellites/36588 · /tle

For live sub-satellite position, see the globe view (requires WebGL).

§ Visibility from observer

Set your observer location to see the next 7 days of passes ≥ 10°. The values pass through the URL so the page stays shareable.

No JS? Fill the form by hand. The geolocation button needs JavaScript.